This is the latest recevied weather packets stored in our database for station/object NZ3C. If no packets are shown the sender has not sent any weather packets the latest 10 day(s).
| Time | Temp. | Humidity | Pressure | Rain* | Wind** | Luminosity | Snow |
|---|---|---|---|---|---|---|---|
| 1777331425 | 18.33° C | 55% | 1023.2 hPa | 0 mm | - | 27 W/m² | - |
| 1777331122 | 18.33° C | 55% | 1023 hPa | 0 mm | - | 29 W/m² | - |
| 1777330819 | 18.33° C | 55% | 1023 hPa | 0 mm | - | 31 W/m² | - |
| 1777330516 | 18.89° C | 54% | 1023.1 hPa | 0 mm | - | 34 W/m² | - |
| 1777330214 | 18.89° C | 55% | 1023 hPa | 0 mm | - | 35 W/m² | - |
| 1777329911 | 18.89° C | 53% | 1023.1 hPa | 0 mm | - | 55 W/m² | - |
| 1777329610 | 18.89° C | 54% | 1022.8 hPa | 0 mm | - | 89 W/m² | - |
| 1777329308 | 18.89° C | 52% | 1022.9 hPa | 0 mm | - | 89 W/m² | - |
| 1777329005 | 18.89° C | 52% | 1023.2 hPa | 0 mm | - | 71 W/m² | - |
| 1777328703 | 18.89° C | 52% | 1023 hPa | 0 mm | - | 43 W/m² | - |
| 1777328400 | 18.89° C | 52% | 1022.9 hPa | 0 mm | - | 44 W/m² | - |
| 1777328099 | 18.89° C | 53% | 1022.9 hPa | 0 mm | - | 45 W/m² | - |
| 1777327796 | 18.89° C | 51% | 1023 hPa | 0 mm | - | 55 W/m² | - |
| 1777327494 | 18.89° C | 52% | 1022.9 hPa | 0 mm | - | 63 W/m² | - |
| 1777327191 | 18.89° C | 52% | 1022.9 hPa | 0 mm | - | 67 W/m² | - |
| 1777326889 | 18.89° C | 52% | 1023 hPa | 0 mm | - | 105 W/m² | - |
| 1777326585 | 19.44° C | 52% | 1023.3 hPa | 0 mm | - | 97 W/m² | - |
| 1777326282 | 18.89° C | 53% | 1023.1 hPa | 0 mm | - | 70 W/m² | - |
| 1777325980 | 18.89° C | 51% | 1023.2 hPa | 0 mm | - | 72 W/m² | - |
| 1777325678 | 18.89° C | 51% | 1023.5 hPa | 0 mm | - | 180 W/m² | - |
| 1777325376 | 18.89° C | 53% | 1023.1 hPa | 0 mm | - | 118 W/m² | - |
| 1777325073 | 19.44° C | 51% | 1023.4 hPa | 0 mm | - | 114 W/m² | - |
| 1777324769 | 19.44° C | 52% | 1023.3 hPa | 0 mm | - | 93 W/m² | - |
| 1777324468 | 19.44° C | 52% | 1023.2 hPa | 0 mm | - | 94 W/m² | - |
| 1777324164 | 20° C | 54% | 1023.1 hPa | 0 mm | - | 120 W/m² | - |
* Rain latest hour (hover to see other rain measurements)
** Current wind speed in m/s (hover to see current wind gust speed)